Voltar ao catálogo

COSMOS 2499 DEB

LostPO
NORAD 49937·DEBRIS·🇷🇺 Russia

Lançado May 23, 2014 de Plesetsk Cosmodrome

Loading…

Próximas Passagens (próximas 24 horas)

TLE

ObsoletoSource: Space-Track

Época: Nov 15, 2024, 15:15 UTC

1 49937U 14028U   24320.63590965  .00007174  00000-0  19777-1 0  9992
2 49937  82.4956 279.0823 0307013 244.3195 112.5919 12.97756850142792

Acompanhe COSMOS 2499 DEB em tempo real com AllMySat

Download on the App Store